Mount Holly, NJ

2:53 AM EDT on April 27, 2017 (GMT -0400)
South Jersey Regional

Weather History for KVAY - October, 2011

Change the Weather History Date:

Monday, October 31, 2011

  Actual Average (KPNE) Record (KPNE)
Temperature  
Mean Temperature 42 °F -  
Max Temperature 55 °F 58 °F 75 °F (2004)
Min Temperature 28 °F 39 °F 30 °F (2011)
Degree Days  
Heating Degree Days 24    
Moisture  
Dew Point 33 °F    
Average Humidity 74    
Maximum Humidity 96    
Minimum Humidity 40    
Precipitation  
Precipitation 0.00 in - - ()
Sea Level Pressure  
Sea Level Pressure 30.35 in    
Wind  
Wind Speed 1 mph (SE)    
Max Wind Speed 6 mph    
Max Gust Speed -    
Visibility 9 miles    
Events      
Averages and records for this station are not official NWS values.
T = Trace of Precipitation, MM = Missing Value Source: NWS Daily Summary

Daily Weather History Graph

Daily Weather History Graph

Search for Another Location

Airport or City:

Trip Planner

Search our weather history database for the weather conditions in past years. The results will help you decide how hot, cold, wet, or windy it might be!

Date:

Astronomy

Oct. 31, 2011 Rise Set
Actual Time 7:26 AM EDT 5:58 PM EDT
Civil Twilight 6:58 AM EDT 6:26 PM EDT
Nautical Twilight 6:26 AM EDT 6:58 PM EDT
Astronomical Twilight 5:55 AM EDT 7:29 PM EDT
Moon 12:32 PM EDT (10/31) 10:31 PM EDT (10/31)
Length of Visible Light 11h 27m
Length of Day
10h 31m
Waxing Crescent, 29% of the Moon is Illuminated
Oct 31
Waxing Crescent
Nov 2
First Quarter
Nov 10
Full
Nov 18
Last Quarter
Nov 25
New

Hourly Weather History & Observations

Time (EDT) Temp. Dew Point Humidity Pressure Visibility Wind Dir Wind Speed Gust Speed Precip Events Conditions
12:54 AM 30.0 °F 28.9 °F 96% 30.38 in 7.0 mi Calm Calm - N/A   Clear
1:54 AM 30.0 °F 28.0 °F 92% 30.38 in 6.0 mi Calm Calm - N/A   Clear
2:54 AM 28.9 °F 27.0 °F 92% 30.39 in 9.0 mi Calm Calm - N/A   Clear
3:54 AM 28.9 °F 26.1 °F 89% 30.38 in 8.0 mi Calm Calm - N/A   Clear
4:54 AM 28.0 °F 26.1 °F 92% 30.38 in 7.0 mi Calm Calm - N/A   Clear
5:54 AM 28.0 °F 25.0 °F 88% 30.38 in 6.0 mi Calm Calm - N/A   Clear
7:54 AM 28.0 °F 26.1 °F 92% 30.40 in 7.0 mi Calm Calm - N/A   Unknown
8:54 AM 30.9 °F 28.9 °F 92% 30.41 in 8.0 mi Calm Calm - N/A   Clear
9:54 AM 39.9 °F 37.0 °F 89% 30.41 in 10.0 mi Calm Calm - N/A   Unknown
10:54 AM 46.9 °F 34.0 °F 61% 30.40 in 10.0 mi Calm Calm - N/A   Clear
11:54 AM 52.0 °F 30.0 °F 43% 30.39 in 10.0 mi Variable 4.6 mph - N/A   Clear
12:54 PM 53.1 °F 33.1 °F 47% 30.35 in 10.0 mi ESE 4.6 mph - N/A   Clear
1:54 PM 55.0 °F 30.9 °F 40% 30.32 in 10.0 mi Variable 4.6 mph - N/A   Clear
2:54 PM 55.9 °F 32.0 °F 40% 30.30 in 10.0 mi Variable 3.5 mph - N/A   Clear
3:54 PM 55.0 °F 34.0 °F 45% 30.30 in 10.0 mi SE 5.8 mph - N/A   Partly Cloudy
4:54 PM 54.0 °F 35.1 °F 49% 30.30 in 10.0 mi SSE 5.8 mph - N/A   Partly Cloudy
6:54 PM 48.9 °F 39.9 °F 71% 30.33 in 10.0 mi Calm Calm - N/A   Clear
7:54 PM 46.0 °F 39.9 °F 79% 30.31 in 10.0 mi Calm Calm - N/A   Mostly Cloudy
8:54 PM 45.0 °F 39.0 °F 80% 30.30 in 10.0 mi Calm Calm - N/A   Mostly Cloudy
9:54 PM 44.1 °F 39.9 °F 85% 30.32 in 10.0 mi Calm Calm - N/A   Mostly Cloudy
10:54 PM 45.0 °F 39.9 °F 82% 30.31 in 10.0 mi Calm Calm - N/A   Mostly Cloudy
11:54 PM 46.0 °F 39.0 °F 76% 30.28 in 10.0 mi Calm Calm - N/A   Clear